CAPE
0 3 4 1 0 1 0 0 0 0 0 0 0 0 0 0 0 0 0 0 0 0 0 0 0 0 0 0 0 0 0 0 0 0 0 0 0 0 0 0 0 0 0 0 0 0 0
0 1 1 4 9 4 4 1 0 0 0 0 0 0 0 0 0 0 0 0 0 0 0 0 0 0 0 0 0 0 0 0 0 0 0 0 0 0 0 0 0 0 0 0 0 0 0
0 1 2 3 3 7 4 3 3 0 0 0 0 0 0 0 0 0 0 0 0 0 0 0 0 0 0 0 0 0 0 0 0 0 0 0 0 0 0 0 0 0 0 0 0 0 0
3 3 1 1 2 7 4 0 0 0 0 0 0 0 0 0 0 0 0 0 0 0 0 0 0 0 0 0 0 0 0 0 0 0 0 0 0 0 0 0 0 0 0 0 0 0 0
5 4 3 2 1 1 2 0 0 0 0 0 0 0 0 0 0 0 0 0 0 0 0 0 0 0 0 0 0 0 0 0 0 0 0 0 0 0 0 0 0 0 0 0 0 0 0
5 11 12 10 4 0 0 0 0 0 0 0 0 0 0 0 0 0 0 0 0 0 0 0 0 0 0 0 0 0 0 0 0 0 0 0 0 0 0 0 0 0 0 0 0 0 0
4 13 16 10 2 0 0 0 0 0 0 0 0 0 0 0 0 0 0 0 0 0 0 0 0 0 0 0 0 0 0 0 0 0 0 0 0 0 0 0 0 0 0 0 0 0 0
6 11 11 11 10 0 0 0 0 0 0 0 0 0 0 0 0 0 0 0 0 0 0 0 0 0 0 0 0 0 0 0 0 0 0 0 0 0 0 0 0 0 0 0 0 0 0
9 8 20 5 3 7 0 0 0 0 0 0 0 0 0 0 0 0 0 0 0 0 0 0 0 0 0 0 0 0 0 0 0 0 0 0 0 0 0 0 0 0 0 0 0 0 0
29 33 30 25 12 0 0 0 0 0 0 0 0 0 0 0 0 0 0 0 0 0 0 0 0 0 0 0 0 0 0 0 0 0 0 0 0 0 0 0 0 0 0 0 0 0 0
5 3 1 0 3 10 2 0 0 0 0 0 0 0 0 0 0 0 0 0 0 0 0 0 0 0 0 0 0 0 0 0 0 0 0 0 0 0 0 0 0 0 0 0 0 0 0
4 7 6 6 3 1 1 1 1 0 0 0 0 0 0 0 0 0 0 0 0 0 0 0 0 0 0 0 0 0 0 0 0 0 0 0 0 0 0 0 0 0 0 0 0 0 0
0 0 0 2 4 4 3 6 2 1 0 0 0 0 0 0 0 0 0 0 0 0 0 0 0 0 0 0 0 0 0 0 0 0 0 0 0 0 0 0 0 0 0 0 0 0 0
19 29 8 4 8 1 1 4 10 5 1 0 0 0 0 0 0 0 0 0 0 0 0 0 0 0 0 0 0 0 0 0 0 0 0 0 0 0 0 0 0 0 0 0 0 0 0
47 34 31 23 13 15 6 0 1 13 6 0 0 0 0 0 0 0 0 0 0 0 0 0 0 0 0 0 0 0 0 0 0 0 0 0 0 0 0 0 0 0 0 0 0 0 0
54 47 53 43 28 38 3 2 21 21 8 0 0 0 0 0 0 0 0 0 0 0 0 0 0 0 0 0 0 0 0 0 0 0 0 0 0 0 0 0 0 0 0 0 0 0 0
63 69 69 45 51 46 43 29 15 48 54 22 8 4 0 0 0 0 0 0 0 0 0 0 0 0 0 0 0 0 0 0 0 0 0 0 0 0 0 0 0 0 0 0 0 0 0
71 45 61 103 67 34 30 43 49 47 97 91 53 7 1 0 0 0 0 0 0 0 0 0 0 0 0 0 12 19 2 2 0 0 0 0 0 0 0 0 0 0 0 0 0 0 0
38 70 58 51 68 68 50 42 65 60 80 106 69 18 1 0 2 0 0 0 0 0 0 0 0 0 0 9 12 4 1 0 0 0 0 0 0 0 0 0 0 0 0 0 0 0 0
62 80 67 50 51 62 64 65 68 58 77 64 19 3 3 3 0 2 1 1 6 0 0 4 5 0 0 1 1 2 1 0 0 0 0 0 0 0 0 0 0 0 0 0 0 0 0
52 69 69 59 40 38 55 91 101 94 68 66 61 6 0 0 2 9 13 12 33 39 5 0 0 4 7 35 9 3 0 0 0 0 0 1 0 0 0 0 0 0 0 0 0 0 0
46 32 41 63 56 50 58 100 100 119 97 26 28 13 1 0 0 1 19 18 26 15 0 0 1 0 3 34 28 0 1 0 0 0 0 4 0 0 0 0 0 0 0 0 0 0 0
45 34 36 30 77 54 80 88 89 87 82 53 18 39 13 3 0 0 0 0 0 0 3 4 0 10 15 1 0 4 19 3 1 0 0 1 1 0 0 0 0 0 0 0 0 0 0
47 43 38 64 108 108 114 116 86 86 82 38 0 47 57 2 1 0 0 0 0 0 3 0 1 13 0 0 0 0 0 0 0 0 3 3 14 0 0 0 0 0 0 0 0 0 0
53 57 70 39 72 102 110 113 110 103 57 46 49 16 8 8 0 3 2 0 0 0 0 0 0 0 0 0 0 0 0 0 0 0 0 0 12 5 4 0 0 0 0 0 0 0 0
101 61 102 99 83 99 142 136 143 76 62 38 12 12 29 0 2 0 1 1 0 0 0 0 0 0 0 0 0 0 0 0 0 0 0 0 10 20 3 21 12 0 0 0 0 0 0
129 78 87 87 83 81 95 115 116 85 54 25 16 20 19 0 1 0 6 0 0 0 0 0 1 0 0 0 1 0 0 0 0 0 0 1 9 3 12 3 1 0 0 0 0 0 0
106 71 79 65 76 76 75 82 111 140 98 48 5 16 42 18 0 2 4 21 5 1 3 1 0 0 0 0 2 0 0 0 0 0 0 0 0 0 1 16 4 0 0 0 0 0 0
134 95 83 80 77 81 66 94 96 113 150 130 13 4 37 42 0 0 0 1 1 6 24 0 0 0 0 1 0 0 1 0 0 0 0 0 0 0 0 0 0 0 0 0 0 0 0
CIN
0 0 0 0 0 0 0 0 0 0 0 0 0 0 0 0 0 0 0 0 0 0 0 0 0 0 0 0 0 0 0 0 0 0 0 0 0 0 0 0 0 0 0 0 0 0 0
0 0 0 0 0 0 0 0 0 0 0 0 0 0 0 0 0 0 0 0 0 0 0 0 0 0 0 0 0 0 0 0 0 0 0 0 0 0 0 0 0 0 0 0 0 0 0
0 0 0 0 0 0 0 0 0 0 0 0 0 0 0 0 0 0 0 0 0 0 0 0 0 0 0 0 0 0 0 0 0 0 0 0 0 0 0 0 0 0 0 0 0 0 0
0 0 0 0 0 0 0 0 0 0 0 0 0 0 0 0 0 0 0 0 0 0 0 0 0 0 0 0 0 0 0 0 0 0 0 0 0 0 0 0 0 0 0 0 0 0 0
0 0 0 0 0 0 0 0 0 0 0 0 0 0 0 0 0 0 0 0 0 0 0 0 0 0 0 0 0 0 0 0 0 0 0 0 0 0 0 0 0 0 0 0 0 0 0
0 0 0 0 0 0 0 0 0 0 0 0 0 0 0 0 0 0 0 0 0 0 0 0 0 0 0 0 0 0 0 0 0 0 0 0 0 0 0 0 0 0 0 0 0 0 0
0 0 0 0 0 0 0 0 0 0 0 0 0 0 0 0 0 0 0 0 0 0 0 0 0 0 0 0 0 0 0 0 0 0 0 0 0 0 0 0 0 0 0 0 0 0 0
0 0 0 0 0 0 0 0 0 0 0 0 0 0 0 0 0 0 0 0 0 0 0 0 0 0 0 0 0 0 0 0 0 0 0 0 0 0 0 0 0 0 0 0 0 0 0
0 0 0 0 0 0 0 0 0 0 0 0 0 0 0 0 0 0 0 0 0 0 0 0 0 0 0 0 0 0 0 0 0 0 0 0 0 0 0 0 0 0 0 0 0 0 0
0 0 0 0 0 0 0 0 0 0 0 0 0 0 0 0 0 0 0 0 0 0 0 0 0 0 0 0 0 0 0 0 0 0 0 0 0 0 0 0 0 0 0 0 0 0 0
0 0 0 0 -2 0 -4 -1 -5 -4 0 0 0 0 0 0 0 0 0 0 0 0 0 0 0 0 0 0 0 0 0 0 0 0 0 0 0 0 0 0 0 0 0 0 0 0 0
0 0 0 0 0 0 0 0 -9 -3 -2 0 0 0 0 0 0 0 0 0 0 0 0 0 0 0 0 0 0 0 0 0 0 0 0 0 0 0 0 0 0 0 0 0 0 0 0
0 0 0 0 0 0 0 0 0 0 0 0 0 0 0 0 0 0 0 0 0 0 0 0 0 0 0 0 0 0 0 0 0 0 0 0 0 0 0 0 0 0 0 0 0 0 0
-2 0 -1 0 0 0 0 0 0 0 0 0 0 0 0 0 0 0 0 0 0 0 0 0 0 0 0 0 0 0 0 0 0 0 0 0 0 0 0 0 0 0 0 0 0 0 0
-1 -2 -2 -1 -1 -1 0 0 0 0 0 0 0 0 0 0 0 0 0 0 0 0 0 0 0 0 0 0 0 0 0 0 0 0 0 0 0 0 0 0 0 0 0 0 0 0 0
-1 -1 -1 -1 -1 -1 -5 -2 -2 -6 -1 0 0 0 0 0 0 0 0 0 -2 0 0 0 0 0 0 0 0 0 0 0 0 0 0 0 0 0 0 0 0 0 0 0 0 0 0
-1 0 -1 -1 -1 -2 -5 -8 -3 -8 -9 -9 -7 -3 0 0 0 0 0 0 0 0 0 0 0 0 0 0 0 0 -1 0 0 0 0 0 0 0 0 0 0 0 0 0 0 0 0
-2 -5 0 -1 -1 -3 -6 -3 -2 -9 -14 -5 -2 -1 0 0 0 0 0 0 0 0 0 0 0 0 0 -3 -14 -4 -8 -17 0 0 0 0 0 0 0 0 0 0 0 0 0 0 0
-1 0 -3 -3 -3 -6 -2 -3 -4 -4 -9 -4 -1 -9 0 0 0 0 0 0 0 -6 -3 0 0 0 0 -4 -6 -7 -11 0 0 0 0 0 0 0 0 0 0 0 0 0 0 0 0
-1 -3 -6 -3 -3 -3 -7 -10 -11 -9 -7 -1 -2 0 -1 0 0 -4 0 0 0 0 0 -41 -7 0 0 -2 -4 -2 0 0 0 0 0 0 0 0 0 0 0 0 0 0 0 0 0
-1 -1 -3 -8 -5 -3 -2 -5 -6 -10 -8 -1 -2 0 -1 -2 -2 -1 -9 -12 -2 -2 -44 0 0 -27 -29 -11 -14 -5 0 -1 0 0 0 0 0 0 0 0 0 0 0 0 0 0 0
0 0 0 -1 -2 -1 -2 -1 -4 -7 -9 -12 0 0 0 0 0 0 -1 -1 -1 -7 -1 0 -56 -1 -59 -4 -5 -1 -22 -1 0 0 0 0 -1 0 0 0 0 0 0 0 0 0 0
0 0 -3 -1 -1 -3 -3 -3 -3 -11 -7 -1 -9 -11 -3 0 0 0 0 0 0 0 -5 -12 -1 -20 -24 -40 -11 -58 -27 -16 -10 0 0 0 0 0 0 0 0 0 0 0 0 0 0
0 0 0 0 -2 -3 -6 -4 -3 -3 -8 -4 -2 -14 -2 -14 0 0 0 0 0 0 -41 0 -5 -25 -2 0 0 0 0 0 0 0 -5 -4 -7 0 0 0 0 0 0 0 0 0 0
-1 0 -2 -1 -2 -1 -3 -3 -7 -6 -2 -4 -2 -1 -3 -1 0 0 0 0 0 0 0 0 0 0 0 0 0 0 0 0 0 0 0 -4 -1 -5 -7 0 0 0 0 0 0 0 0
0 0 0 0 0 0 -1 -1 -3 -6 -4 -4 -6 -5 0 0 -2 0 -1 -4 0 0 0 0 0 0 0 0 0 0 0 0 0 0 0 0 0 -5 -4 -2 -3 0 0 0 0 0 0
0 -4 -5 -3 0 0 0 0 -1 -3 -1 -4 -3 -16 -4 -5 -1 0 -2 0 0 0 0 0 0 0 0 0 -5 0 0 0 0 0 0 0 0 0 0 -5 -2 0 0 0 0 0 0
0 -1 -2 0 0 0 0 0 0 0 -1 -4 -2 -4 -2 0 0 -4 -1 -22 -15 -18 -23 0 0 0 0 0 -3 -3 0 0 0 0 0 0 0 0 -4 -3 -4 0 0 0 0 0 0
0 -1 -3 0 0 0 0 0 0 0 0 -1 -4 -4 -6 0 0 0 0 -19 -1 -19 -23 0 0 0 0 -1 -1 0 -1 0 0 0 0 0 0 0 0 0 0 0 0 0 0 0 0
Wind_Speed
4 5 6 6 6 6 5 6 7 9 11 13 15 16 17 19 20 19 19 18 18 16 11 7 8 9 2 4 0 5 15 12 4 3 5 2 5 1 4 1 1 1 2 3 2 5 5
6 6 6 8 8 8 8 7 8 9 11 13 14 15 16 17 19 20 19 18 19 17 8 5 6 5 3 2 4 6 8 6 6 5 5 5 3 2 4 1 1 2 3 6 4 3 3
8 7 7 8 8 8 9 9 9 9 10 12 14 15 16 18 19 21 21 20 19 14 5 3 3 2 5 3 3 6 7 1 4 3 3 2 2 2 2 1 2 1 5 6 3 2 3
10 9 9 9 8 7 7 8 9 9 11 12 13 14 16 17 19 21 23 23 18 6 2 3 4 1 2 2 2 4 7 3 5 3 2 1 2 5 3 2 6 5 5 5 3 4 4
12 11 11 10 9 8 7 7 8 9 10 11 12 14 15 18 20 23 23 23 10 2 2 3 2 1 1 4 4 4 3 3 5 3 1 1 2 3 4 4 5 6 2 2 9 5 4
13 13 12 10 10 10 9 8 7 8 8 9 11 12 15 17 20 24 25 16 7 1 3 1 2 3 5 4 5 5 3 3 2 2 3 5 5 4 4 6 3 3 3 4 5 4 3
14 14 13 12 11 11 10 9 8 8 8 9 9 10 11 15 18 22 12 5 8 5 10 3 3 3 4 8 3 2 4 5 3 6 3 4 6 1 2 2 2 1 3 5 5 3 3
15 14 14 13 13 12 11 10 9 8 8 7 9 10 12 13 15 14 4 6 3 2 9 2 3 3 3 1 4 4 6 4 5 3 4 6 2 2 2 1 1 2 3 6 6 2 2
15 15 15 14 14 14 13 11 10 9 8 7 7 9 10 13 14 5 3 2 1 1 3 5 2 2 2 2 1 5 5 2 5 3 5 1 0 1 1 1 1 3 4 2 4 7 2
8 11 15 15 15 14 13 12 12 11 10 8 7 6 7 13 4 3 3 2 2 2 5 6 4 3 3 1 1 1 2 2 3 1 1 3 2 2 1 3 3 4 1 2 5 5 3
9 9 9 7 10 15 14 14 13 13 11 10 8 7 1 6 2 2 1 2 3 2 5 4 3 3 4 3 4 3 3 2 2 1 4 3 3 2 1 2 2 4 1 3 1 2 5
8 9 11 12 11 9 10 8 8 14 12 11 10 9 8 3 2 2 3 2 2 7 8 2 1 2 4 2 2 3 3 4 0 2 1 5 2 2 3 2 0 3 1 4 4 2 3
2 4 7 8 9 11 12 10 8 6 2 4 8 10 9 4 2 5 3 3 6 4 3 2 2 1 2 2 2 2 4 4 2 6 3 3 2 1 2 1 2 4 5 5 8 6 5
2 1 1 2 5 5 7 10 12 6 6 4 3 7 4 4 5 5 1 4 5 4 5 2 3 2 2 0 2 1 1 3 2 3 2 1 8 3 1 2 3 2 4 7 6 3 6
5 3 3 3 4 2 3 5 8 10 3 3 4 2 1 1 5 4 3 5 10 8 4 5 2 3 3 2 2 2 4 5 6 9 8 6 6 0 0 1 2 2 1 3 2 0 2
10 9 7 5 3 4 2 1 3 6 2 4 2 1 1 3 2 4 4 8 7 7 6 3 5 6 7 5 3 2 3 2 4 6 1 4 4 2 2 2 3 3 6 4 2 2 6
13 12 11 9 5 2 1 3 8 6 4 6 2 1 2 0 1 1 6 7 5 5 8 8 6 8 7 6 6 5 5 2 3 0 1 3 3 2 3 6 8 2 2 2 4 4 5
14 12 16 14 10 7 3 3 2 7 10 2 2 3 2 2 2 3 5 5 4 3 2 4 4 7 5 4 5 8 9 9 4 8 5 5 4 4 9 2 2 2 7 7 5 6 4
12 16 15 13 12 10 8 6 6 4 6 2 3 1 1 1 4 4 1 1 4 6 6 5 8 8 5 7 5 5 4 2 4 5 4 3 3 3 5 1 2 5 6 5 4 2 6
12 13 12 13 10 11 11 11 8 7 6 3 3 2 1 2 0 3 8 6 10 4 3 5 4 3 3 6 8 4 6 2 1 3 4 3 3 7 11 3 3 5 7 8 9 4 7
14 12 11 10 8 11 12 11 11 12 11 2 3 3 5 3 5 10 1 3 2 6 3 3 4 9 7 5 6 6 4 3 2 4 3 1 6 6 8 6 5 6 6 11 11 14 10
16 15 14 10 14 13 13 11 12 11 13 4 4 3 3 2 2 12 13 10 12 7 5 4 3 6 5 8 9 6 5 4 6 3 6 5 4 3 5 8 12 18 16 15 18 16 17
18 18 15 15 13 11 13 13 11 11 11 3 3 2 3 5 5 7 8 17 16 10 6 13 11 5 7 14 11 6 4 7 5 4 6 4 3 2 11 4 6 13 16 18 14 14 15
18 17 19 18 13 11 12 13 14 14 10 3 3 2 3 5 10 13 8 15 15 14 15 4 9 14 5 6 5 4 3 3 6 10 9 5 3 3 3 2 11 8 2 7 17 17 13
17 20 18 15 14 15 12 15 15 16 15 5 1 3 5 9 6 7 14 10 10 9 12 9 4 3 6 4 3 0 1 3 8 13 14 14 9 6 7 6 12 14 6 7 8 8 9
18 18 17 16 15 14 13 14 15 15 12 6 6 6 6 4 14 10 7 9 8 5 3 8 1 1 2 3 3 7 7 7 5 3 4 8 12 10 9 8 8 3 3 3 4 7 5
19 18 17 16 16 15 15 16 16 15 18 7 4 6 4 3 3 6 9 9 6 5 3 2 5 2 4 6 8 6 6 6 6 6 6 4 5 16 16 12 4 7 6 2 2 7 4
20 19 16 15 15 14 15 15 16 16 16 10 5 5 6 5 4 5 11 5 2 7 6 5 3 2 3 6 4 4 5 7 5 6 8 9 8 5 5 7 12 5 5 7 4 3 5
19 17 17 15 15 16 15 16 15 15 16 13 4 2 2 7 2 3 12 17 17 8 7 7 2 6 5 5 4 2 4 3 4 6 1 6 8 6 9 8 1 7 3 3 5 5 6
Wind_Direction
276 300 305 310 315 321 330 339 341 344 349 350 349 349 347 345 343 341 342 342 337 336 323 322 330 337 349 55 123 321 338 335 343 39 62 59 57 68 132 204 355 110 313 297 271 290 266
257 272 287 301 309 315 315 323 330 339 344 345 346 344 342 340 338 337 339 339 337 336 313 312 330 342 336 78 318 330 343 345 7 20 26 31 128 141 92 57 76 326 286 279 302 297 281
249 261 274 282 289 302 311 321 325 330 337 340 340 339 339 338 335 333 334 337 337 331 302 288 329 67 58 180 317 334 359 66 355 6 52 48 77 37 134 85 334 324 333 342 38 320 245
253 256 256 267 278 287 301 312 318 327 332 333 334 336 337 335 331 332 332 331 329 313 292 328 351 52 105 303 297 13 339 350 6 22 61 169 89 110 59 322 13 34 51 12 290 349 21
256 254 257 259 263 271 278 290 305 317 323 329 334 335 334 334 333 331 328 323 324 316 327 0 330 69 108 329 28 316 2 353 312 332 172 116 67 84 35 69 16 7 277 323 323 33 342
251 257 255 253 257 264 270 275 283 296 308 320 328 332 333 335 332 330 327 320 330 19 360 35 44 23 10 316 302 328 319 0 4 321 10 49 53 70 40 59 235 294 333 315 243 292 325
243 249 253 252 248 249 254 260 269 283 298 312 320 325 332 331 334 332 342 1 11 348 39 129 248 263 292 299 271 318 20 358 339 40 46 5 59 100 185 172 153 188 239 246 257 292 267
235 242 247 251 258 255 252 250 253 261 278 297 311 321 326 330 335 338 19 52 58 242 313 223 236 253 231 342 318 2 8 47 32 11 343 15 94 178 154 141 178 220 283 282 296 258 287
232 237 244 246 249 257 259 253 251 254 259 276 290 309 324 327 328 40 71 83 186 31 265 295 258 248 253 14 4 322 27 39 48 25 20 133 36 13 85 297 276 242 218 269 260 329 321
253 260 250 248 248 249 251 258 256 249 244 239 250 280 319 325 24 323 45 135 128 82 42 305 346 12 1 8 328 340 52 85 40 42 333 227 334 33 344 291 119 305 191 291 306 26 292
28 35 29 15 270 252 246 244 246 249 245 238 225 226 177 64 273 8 242 128 100 20 360 289 331 283 342 356 343 16 359 351 115 34 68 287 12 343 267 246 172 232 333 314 347 89 24
3 13 36 36 43 37 16 18 273 236 236 238 217 207 145 139 105 198 132 110 61 42 263 359 335 18 358 34 349 330 357 34 322 115 78 247 270 210 211 107 96 334 20 55 54 81 24
357 23 12 28 22 23 13 1 2 20 16 228 219 189 156 142 187 135 124 32 34 157 343 296 287 88 105 265 318 21 349 320 251 7 334 318 229 218 179 96 51 74 53 335 348 5 237
280 193 111 50 49 26 16 5 349 351 358 343 257 176 160 139 134 134 106 71 185 235 242 10 16 25 292 169 247 196 167 270 236 93 106 155 327 185 177 155 142 94 135 153 236 260 273
256 244 265 155 140 104 7 21 345 339 351 86 93 7 120 86 123 117 155 190 192 196 190 168 111 171 273 278 236 299 226 224 224 172 178 159 256 177 120 96 120 154 139 138 99 208 27
283 262 245 250 226 170 144 19 345 320 288 210 90 319 50 345 140 113 207 218 208 190 144 159 169 184 201 217 209 222 234 216 269 207 169 211 289 160 177 133 25 161 163 80 24 259 267
274 264 260 245 235 249 290 341 332 337 311 190 145 188 34 159 275 191 210 208 203 195 146 180 208 261 208 202 201 206 220 296 245 304 165 146 175 250 114 198 180 144 216 69 136 169 200
248 269 278 246 218 224 222 288 310 322 319 174 204 201 99 284 205 227 221 189 153 214 142 202 150 187 225 225 237 228 225 202 161 153 199 218 174 233 215 10 26 160 192 167 161 232 243
264 249 253 276 254 206 217 229 239 263 292 294 254 193 147 246 232 209 275 237 235 183 193 171 213 202 178 209 243 232 202 350 145 180 186 212 230 295 300 57 102 201 200 186 104 85 200
255 265 239 256 271 260 222 212 214 218 276 305 156 230 190 191 322 231 255 260 249 241 239 174 200 107 177 202 201 227 222 181 158 199 129 174 219 206 247 234 120 200 188 191 189 167 253
267 280 252 243 267 262 261 243 213 221 206 168 250 216 176 195 202 213 196 11 268 219 225 221 207 210 183 232 217 223 217 229 215 168 43 160 242 220 253 267 266 241 212 184 196 219 209
246 253 266 258 235 245 261 253 256 221 219 198 269 215 173 153 186 205 208 217 246 248 148 258 242 219 226 244 239 221 194 189 213 171 175 183 274 206 264 235 253 264 249 230 232 239 241
238 236 255 259 252 249 251 254 261 251 207 228 217 253 300 185 185 189 203 213 220 219 240 252 244 224 213 230 234 246 201 153 186 204 215 221 201 201 271 215 278 269 237 217 224 227 224
233 243 247 242 248 253 258 258 239 248 236 209 242 214 221 263 217 220 218 205 213 204 212 216 207 229 241 103 90 63 60 231 215 226 178 203 224 210 250 112 259 264 276 221 216 239 218
229 232 240 241 246 240 246 260 258 237 241 238 283 237 208 243 252 226 225 218 226 224 221 237 227 207 147 101 99 229 297 300 231 227 214 205 223 248 250 229 285 287 207 194 171 258 205
235 238 235 239 244 253 256 252 256 250 259 254 232 228 286 238 226 220 229 215 226 195 163 224 123 117 64 143 164 188 209 198 223 270 20 210 224 240 227 235 249 251 187 154 121 276 207
236 238 236 236 243 247 250 256 258 249 226 228 276 204 218 278 244 155 212 199 177 176 202 143 168 175 163 199 214 188 213 188 205 197 183 177 206 224 236 246 241 251 144 153 163 269 160
242 241 239 242 245 247 253 259 264 260 247 207 229 237 234 258 236 225 244 188 184 190 191 150 113 184 170 215 219 213 199 200 195 200 180 177 180 206 228 254 266 128 75 178 195 164 163
241 245 247 243 243 249 249 259 263 268 263 223 225 190 245 233 289 315 255 236 225 214 211 183 229 173 182 196 184 186 223 155 181 239 85 215 194 185 194 213 347 201 199 195 172 160 192